Flag for Tajikistan Weather past 2 weeks in Dushanbe, Tajikistan

Now
52 °F

Passing clouds.


Feels Like: 51 °F
Forecast: 47 / 77 °F
Wind: 3 mph from Northeast

Location: Dushanbe Airport


UV Index: 7 (High)

Visibility: 5 mi


Pressure: 29.98 "Hg

Humidity: 67%

Dew point: 41 °F

Location of DushanbeLocation

Historic Weather in Dushanbe

°F

Dushanbe temperature yesterday

Maximum temperature yesterday: 75 °F (at 3:00 PM)
Minimum temperature yesterday: 48 °F (at 5:30 AM)
Average temperature yesterday: 63 °F

Past Weeks' High & Low Weather Summary

 TemperatureHumidityPressure
High75 °F (Apr 20, 3:00 PM)100% (Apr 8, 3:30 AM)30.39 "Hg (Apr 8, 3:30 AM)
Low41 °F (Apr 8, 5:00 AM)12% (Apr 9, 4:30 PM)29.95 "Hg (Apr 11, 7:00 PM)
Average57 °F62%30.10 "Hg
* Reported Apr 6 5:00 AM — Apr 21 5:00 AM, Dushanbe, Weather by CustomWeather, © 2014

Note: Actual official high and low records may vary slightly from our data, if they occured in-between our weather recording intervals... More about our weather records

Advertising

Historic Weather Conditions — Data for Previous 24 hours

 ConditionsComfort  
Time TempWeatherWind HumidityBarometerVisibility
5:00 AM
Apr 21
50 °FPassing clouds.1 mph71%29.98 "HgN/A
4:30 AM52 °FPassing clouds.1 mph67%29.98 "HgN/A
4:00 AM52 °FPassing clouds.No wind67%29.98 "HgN/A
3:30 AM52 °FPassing clouds.No wind67%29.98 "HgN/A
3:00 AM52 °FPassing clouds.1 mph72%29.98 "HgN/A
2:00 AM54 °FPassing clouds.1 mph67%29.98 "HgN/A
1:30 AM54 °FPassing clouds.No wind67%29.98 "HgN/A
1:00 AM55 °FPassing clouds.No wind67%30.01 "HgN/A
12:30 AM54 °FClear.1 mph72%30.01 "HgN/A
12:00 AM57 °FClear.No wind59%30.01 "HgN/A
11:30 PM
Apr 20
57 °FClear.3 mph59%30.01 "HgN/A
11:00 PM59 °FClear.No wind59%30.01 "HgN/A
10:30 PM59 °FPassing clouds.1 mph55%30.01 "HgN/A
10:00 PM59 °FPassing clouds.3 mph55%30.01 "HgN/A
9:30 PM63 °FPassing clouds.3 mph49%30.01 "HgN/A
9:00 PM61 °FPassing clouds.3 mph55%29.98 "HgN/A
8:30 PM64 °FPassing clouds.No wind43%29.98 "Hg6 mi
8:00 PM64 °FPassing clouds.No wind43%29.98 "Hg5 mi
7:30 PM68 °FPassing clouds.1 mph35%29.95 "HgN/A
7:00 PM72 °FPassing clouds.No wind23%29.95 "HgN/A
6:30 PM72 °FPassing clouds.No wind27%29.95 "HgN/A
6:00 PM72 °FPassing clouds.1 mph29%29.95 "HgN/A
5:30 PM73 °FPassing clouds.1 mph25%29.95 "HgN/A
5:00 PM73 °FScattered clouds.3 mph25%29.95 "HgN/A
4:30 PM73 °FScattered clouds.3 mph33%29.95 "HgN/A
4:00 PM73 °FScattered clouds.6 mph27%29.98 "HgN/A
3:30 PM73 °FPartly sunny.6 mph29%29.98 "HgN/A
3:00 PM75 °FScattered clouds.1 mph19%29.98 "HgN/A
2:30 PM73 °FScattered clouds.3 mph23%29.98 "HgN/A
2:00 PM73 °FScattered clouds.3 mph22%29.98 "HgN/A
1:30 PM73 °FPartly sunny.3 mph19%29.98 "HgN/A
1:00 PM73 °FPartly sunny.6 mph20%30.01 "HgN/A
12:30 PM73 °FPartly sunny.1 mph22%30.01 "HgN/A
12:00 PM72 °FPartly sunny.1 mph27%30.01 "HgN/A
11:30 AM70 °FPartly sunny.3 mph25%30.01 "HgN/A
11:00 AM70 °FPartly sunny.6 mph35%30.01 "HgN/A
10:30 AM68 °FPartly sunny.6 mph33%30.01 "HgN/A
10:00 AM66 °FPartly sunny.6 mph43%30.01 "HgN/A
9:30 AM63 °FPartly sunny.3 mph56%30.01 "HgN/A
9:00 AM63 °FOvercast.1 mph42%30.01 "HgN/A
8:30 AM59 °FOvercast.No wind59%30.01 "HgN/A
8:00 AM55 °FOvercast.3 mph72%30.01 "Hg4 mi
7:30 AM55 °FOvercast.1 mph67%30.01 "HgN/A
7:00 AM52 °FOvercast.No wind72%30.01 "HgN/A
6:30 AM52 °FOvercast.1 mph67%29.98 "HgN/A
6:00 AM52 °FPartly sunny.3 mph67%29.98 "HgN/A
Weather by CustomWeather, © 2014

See weather overview